CZ-6A DEB, 54506

Orbit data source: Space-Track

CZ-6A DEB, 54506 is space debris in SSO originally from a launch on Fri, 11 Nov 2022 UTC launched from the Taiyaun Space Center, China (TSC). Debris objects in space refer to the collection of defunct objects orbiting the Earth. Examples of debris include non-operational satellites, rocket bodies, and fragments generated from explosions, collisions, or faulty payload assembly.

Loading next visibility...
Identifier
54506, 2022-151JJ
Orbit
SSO
Country
Flag of CNCN / PRC
Related business
Manufacturer
SAST
Mission
Spacecraft
Bus & Motor
Unknown
Mass
Unknown
Launch date (UTC)
2022-11-11 (4 years ago)
Launch vehicle
Unknown
Launch site
Taiyaun Space Center, China (TSC)
Object type
Payload
Rocket body
Debris
Shape & HBR
Unknown shape, 1.1 m
Radar Cross Section
Medium (>0.1 m² and <1 m²)

Expand to show TLE details & history
Last TLE update: 7 hours ago

TLE from 7 hours ago
0 CZ-6A DEB
1 54506U 22151JJ  26193.06027295  .00001041  00000-0  46946-3 0  9991
2 54506  98.8788 223.4873 0101965 150.0395 210.6671 14.21602813189205
Epoch: 2026-07-12T01:26Z
TLE epoch observation values (Epoch: 2026-07-12T01:26:47.582Z)
Latitude
-0.00001°
Longitude
-88.17552°
Altitude
886.185 km
Speed
7.376 km/s
True Right ascension
14h 53m 56s
True Declination
0° 00' 00"
Sunlit
Object was in daylight at epoch
Visualization orbit readout
Latitude
Unknown
Longitude
Unknown
Altitude
Unknown
Speed
Unknown
Apparent Right ascension
Unknown
Apparent Declination
Unknown
Sunlit
N/A
Visualization observer readout
Local Sidereal Time
21:12:09
Azimuth
Unknown
Elevation
Unknown
Doppler factor
Unknown
Orbital elements
Apogee altitude
890.468 km
Perigee altitude
743.735 km
Semi-major axis
7,195.238 km
Eccentricity
0.0102
Inclination
98.8788°
RAAN
223.4873°
Arg. of periapsis
150.0395°
True anomaly
210.07762°
Mean anomaly
210.6671°
Eccentric anomaly
210.37172°
Mean motion
3.55611 °/min
Orbital period
101.23 mins
BSTAR
0.00046946
Loading maneuver chart data...
Computing Atmospheric mass density...
Loading historical data...
Loading historical data...
Loading historical data...
Loading historical data...
Loading historical data...
Loading historical data...
Loading historical data...

Documentation

Showing up to 5 results
|